Regional Weather Roundup
Issued by NWS

Home | Current Version | Previous Version | Graphics & Text | Print | Product List | Glossary On
Versions: 1 2 3 4 5 6 7 8 9 10 11 12 13 14 15 16 17 18 19 20 21 22 23 24 25 26 27
000
ASUS45 KCYS 241610
RWRWY

WYOMING REGIONAL WEATHER ROUNDUP
NATIONAL WEATHER SERVICE CHEYENNE WY
1000 AM MDT WED MAY 24 2017

NOTE:  "FAIR" INDICATES FEW OR NO CLOUDS BELOW 12,000 FEET
WITH NO SIGNIFICANT WEATHER AND/OR OBSTRUCTIONS TO VISIBILITY.

WYZ001-241700-
YELLOWSTONE NATIONAL PARK

CITY           SKY/WX    TMP DP  RH WIND       PRES   REMARKS
LK YELLOWSTONE   N/A     56  34  43 VRB5      29.79F
W YELLOWSTONE  NOT AVBL

$$
WYZ002>013-054>058-071-098>099-241700-
NORTHERN WYOMING

CITY           SKY/WX    TMP DP  RH WIND       PRES   REMARKS
JACKSON        PTSUNNY   57  43  58 SE6       29.77F
CODY           FAIR      72  39  30 SW13      29.60F
GREYBULL       FAIR      68  36  30 SE8       29.57F
WORLAND        FAIR      66  45  46 VRB5      29.59F
SHERIDAN       FAIR      68  51  54 NE3       29.51F
BUFFALO        FAIR      70  51  51 SE12      29.58F
GILLETTE       FAIR      64  46  52 S17G23    29.58F
HULETT         FAIR      64  36  34 SW16      29.60F
NEWCASTLE      FAIR      59  32  36 S17G23    29.66F

$$
WYZ014>020-022>026-101>103-241700-
CENTRAL WYOMING

CITY           SKY/WX    TMP DP  RH WIND       PRES   REMARKS
BIG PINEY      FAIR      61  40  45 S7        29.87F
PINEDALE       FAIR      59  34  38 E5        29.87F
DUBOIS         FAIR      63  32  31 W24G36    29.76F
LANDER         FAIR      65  38  36 E7        29.71F
RIVERTON       FAIR      66  39  37 W7        29.71F
CASPER         FAIR      65  44  46 SW22G30   29.71F
DOUGLAS        FAIR      63  45  51 CALM      29.68F

$$
WYZ021-027>030-104>119-241700-
SOUTHERN WYOMING

CITY           SKY/WX    TMP DP  RH WIND       PRES   REMARKS
EVANSTON       FAIR      64  37  36 SW20      29.95F
KEMMERER         N/A     63  32  31 W20       29.93F
FORT BRIDGER   FAIR      68  32  26 W23G37    29.96F
ROCK SPRINGS   FAIR      65  31  28 W22       29.89F
DIXON            N/A     63  35  34 SW17      29.95F
RAWLINS        FAIR      64  32  30 SW26G41   29.86F
SARATOGA       FAIR      64  32  29 MISG      29.91F
LARAMIE        FAIR      63  34  33 MISG      29.86F
CHEYENNE       FAIR      68  36  30 W18G25    29.79F
TORRINGTON     FAIR      59  40  49 VRB6      29.68F
PINE BLUFFS    FAIR      61  37  41 SW14      29.76F

$$




USA.gov is the U.S. government's official web portal to all federal, state and local government web resources and services.